This is the latest recevied weather packets stored in our database for station/object KC2GYU. If no packets are shown the sender has not sent any weather packets the latest 10 day(s).
| Time | Temp. | Humidity | Pressure | Rain* | Wind** | Luminosity | Snow |
|---|---|---|---|---|---|---|---|
| 1777472863 | 13.33° C | 79% | 1016.8 hPa | 0 mm | - | 230 W/m² | - |
| 1777472558 | 13.33° C | 78% | 1016.9 hPa | 0 mm | - | 446 W/m² | - |
| 1777472256 | 12.78° C | 80% | 1017.1 hPa | 0 mm | - | 385 W/m² | - |
| 1777471952 | 12.22° C | 83% | 1017.1 hPa | 0 mm | - | 257 W/m² | - |
| 1777471649 | 12.78° C | 83% | 1017 hPa | 0 mm | - | 309 W/m² | - |
| 1777471345 | 12.78° C | 82% | 1017.1 hPa | 0 mm | - | 262 W/m² | - |
| 1777471042 | 12.78° C | 79% | 1016.9 hPa | 0 mm | - | 203 W/m² | - |
| 1777470738 | 12.78° C | 80% | 1016.7 hPa | 0 mm | - | 319 W/m² | - |
| 1777470435 | 12.78° C | 77% | 1016.9 hPa | 0 mm | - | 236 W/m² | - |
| 1777470132 | 12.78° C | 74% | 1016.7 hPa | 0 mm | - | 174 W/m² | - |
| 1777469828 | 12.78° C | 75% | 1016.8 hPa | 0 mm | - | 235 W/m² | - |
| 1777469524 | 12.78° C | 76% | 1016.7 hPa | 0 mm | - | 223 W/m² | - |
| 1777469219 | 12.78° C | 77% | 1016.7 hPa | 0 mm | - | 314 W/m² | - |
| 1777468918 | 12.78° C | 79% | 1016.8 hPa | 0 mm | - | 278 W/m² | - |
| 1777468615 | 12.22° C | 76% | 1016.7 hPa | 0 mm | - | 173 W/m² | - |
| 1777468312 | 12.22° C | 79% | 1016.5 hPa | 0 mm | - | 158 W/m² | - |
| 1777468008 | 12.22° C | 79% | 1016.9 hPa | 0 mm | - | 166 W/m² | - |
| 1777467704 | 12.78° C | 77% | 1016.9 hPa | 0 mm | - | 183 W/m² | - |
| 1777467399 | 13.33° C | 74% | 1016.9 hPa | 0 mm | - | 235 W/m² | - |
| 1777467095 | 13.33° C | 74% | 1016.7 hPa | 0 mm | - | 298 W/m² | - |
| 1777466792 | 13.89° C | 74% | 1016.6 hPa | 0 mm | - | 276 W/m² | - |
| 1777466491 | 13.33° C | 77% | 1016.6 hPa | 0 mm | - | 288 W/m² | - |
| 1777466187 | 12.78° C | 80% | 1016.7 hPa | 0 mm | - | 238 W/m² | - |
| 1777465883 | 12.22° C | 81% | 1016.6 hPa | 0 mm | - | 134 W/m² | - |
| 1777465579 | 12.22° C | 83% | 1016.4 hPa | 0 mm | - | 166 W/m² | - |
* Rain latest hour (hover to see other rain measurements)
** Current wind speed in m/s (hover to see current wind gust speed)